This is the latest recevied weather packets stored in our database for station/object KA0EGE. If no packets are shown the sender has not sent any weather packets the latest 10 day(s).
| Time | Temp. | Humidity | Pressure | Rain* | Wind** | Luminosity | Snow |
|---|---|---|---|---|---|---|---|
| 1777491534 | 26.67° C | 77% | 1016.1 hPa | 0 mm | - | 504 W/m² | - |
| 1777491231 | 27.22° C | 77% | 1016.3 hPa | 0 mm | - | 590 W/m² | - |
| 1777490927 | 27.78° C | 75% | 1016.4 hPa | 0 mm | - | 220 W/m² | - |
| 1777490624 | 27.78° C | 76% | 1016.4 hPa | 0 mm | - | 901 W/m² | - |
| 1777490319 | 28.33° C | 74% | 1016.6 hPa | 0 mm | - | 371 W/m² | - |
| 1777490017 | 28.33° C | 74% | 1016.7 hPa | 0 mm | - | 877 W/m² | - |
| 1777489715 | 27.78° C | 75% | 1016.9 hPa | 0 mm | - | 905 W/m² | - |
| 1777489411 | 27.78° C | 76% | 1016.9 hPa | 0 mm | - | 867 W/m² | - |
| 1777489109 | 27.78° C | 76% | 1017 hPa | 0 mm | - | 422 W/m² | - |
| 1777488805 | 27.78° C | 76% | 1016.9 hPa | 0 mm | - | 952 W/m² | - |
| 1777488503 | 27.78° C | 74% | 1017.1 hPa | 0 mm | - | 423 W/m² | - |
| 1777488201 | 27.78° C | 75% | 1017 hPa | 0 mm | - | 272 W/m² | - |
| 1777487899 | 27.78° C | 73% | 1017.2 hPa | 0 mm | - | 931 W/m² | - |
| 1777487596 | 27.78° C | 74% | 1017.2 hPa | 0 mm | - | 887 W/m² | - |
| 1777487294 | 28.33° C | 74% | 1017.1 hPa | 0 mm | - | 854 W/m² | - |
| 1777486990 | 28.33° C | 73% | 1017.1 hPa | 0 mm | - | 899 W/m² | - |
| 1777486686 | 28.33° C | 72% | 1017.1 hPa | 0 mm | - | 885 W/m² | - |
| 1777486384 | 27.78° C | 74% | 1017.3 hPa | 0 mm | - | 944 W/m² | - |
| 1777486082 | 28.33° C | 73% | 1017.6 hPa | 0 mm | - | 933 W/m² | - |
| 1777485778 | 27.78° C | 72% | 1017.6 hPa | 0 mm | - | 888 W/m² | - |
| 1777485473 | 28.33° C | 71% | 1017.6 hPa | 0 mm | - | 866 W/m² | - |
| 1777485170 | 27.78° C | 73% | 1017.8 hPa | 0 mm | - | 874 W/m² | - |
| 1777484866 | 28.33° C | 75% | 1018 hPa | 0 mm | - | 903 W/m² | - |
| 1777484563 | 27.22° C | 77% | 1018.1 hPa | 0 mm | - | 319 W/m² | - |
| 1777484260 | 27.78° C | 77% | 1018.3 hPa | 0 mm | - | 264 W/m² | - |
* Rain latest hour (hover to see other rain measurements)
** Current wind speed in m/s (hover to see current wind gust speed)